QPF
0.03 0.01 0.02 0.02 0.01 0.01 0.01 0.01 0.00 0.01 0.01 0.01 0.01 0.02 0.02 0.02 0.01 0.02 0.02 0.02 0.02 0.03 0.04 0.06 0.06 0.07 0.11 0.11 0.12 0.13 0.16 0.18 0.20 0.23 0.28 0.33 0.35 0.37 0.34 0.22 0.14 0.11 0.11
0.02 0.01 0.02 0.01 0.01 0.01 0.01 0.01 0.00 0.00 0.01 0.01 0.01 0.02 0.03 0.04 0.03 0.02 0.02 0.02 0.02 0.03 0.03 0.04 0.05 0.05 0.08 0.09 0.10 0.10 0.10 0.13 0.13 0.14 0.22 0.42 0.55 0.55 0.42 0.26 0.16 0.11 0.12
0.01 0.01 0.01 0.02 0.01 0.01 0.01 0.01 0.01 0.00 0.01 0.01 0.01 0.02 0.02 0.02 0.03 0.02 0.02 0.02 0.02 0.03 0.03 0.03 0.04 0.04 0.06 0.08 0.08 0.08 0.08 0.11 0.12 0.12 0.16 0.25 0.37 0.41 0.34 0.26 0.17 0.14 0.13
0.02 0.02 0.02 0.04 0.03 0.02 0.01 0.01 0.01 0.01 0.01 0.01 0.02 0.01 0.01 0.01 0.02 0.02 0.02 0.02 0.03 0.03 0.02 0.03 0.03 0.04 0.05 0.06 0.06 0.06 0.09 0.13 0.17 0.11 0.06 0.06 0.12 0.21 0.22 0.19 0.13 0.13 0.15
0.02 0.02 0.04 0.06 0.09 0.08 0.02 0.01 0.01 0.01 0.01 0.01 0.01 0.00 0.00 0.01 0.01 0.01 0.01 0.02 0.03 0.04 0.03 0.03 0.03 0.04 0.04 0.06 0.05 0.06 0.09 0.12 0.17 0.11 0.05 0.03 0.06 0.17 0.21 0.18 0.13 0.12 0.15
0.01 0.02 0.04 0.13 0.23 0.12 0.04 0.02 0.01 0.01 0.01 0.01 0.01 0.00 0.00 0.01 0.01 0.01 0.01 0.01 0.03 0.06 0.06 0.07 0.06 0.07 0.05 0.06 0.06 0.06 0.08 0.12 0.13 0.10 0.06 0.04 0.07 0.12 0.18 0.19 0.16 0.15 0.13
0.00 0.02 0.04 0.06 0.09 0.07 0.04 0.02 0.02 0.01 0.01 0.01 0.00 0.00 0.00 0.00 0.01 0.01 0.01 0.02 0.02 0.03 0.05 0.06 0.08 0.07 0.07 0.07 0.07 0.07 0.07 0.10 0.11 0.10 0.07 0.05 0.06 0.10 0.13 0.17 0.15 0.13 0.10
0.00 0.01 0.02 0.02 0.03 0.04 0.04 0.03 0.02 0.01 0.01 0.01 0.00 0.01 0.01 0.01 0.01 0.02 0.02 0.02 0.02 0.02 0.03 0.04 0.07 0.08 0.07 0.08 0.09 0.08 0.07 0.09 0.09 0.10 0.09 0.06 0.06 0.09 0.12 0.18 0.15 0.10 0.07
0.01 0.01 0.02 0.02 0.02 0.04 0.05 0.03 0.03 0.02 0.02 0.01 0.00 0.01 0.02 0.02 0.02 0.02 0.02 0.02 0.03 0.02 0.02 0.04 0.09 0.08 0.07 0.07 0.08 0.10 0.08 0.08 0.09 0.09 0.09 0.08 0.09 0.10 0.12 0.14 0.12 0.09 0.07
0.01 0.01 0.01 0.02 0.02 0.04 0.06 0.04 0.04 0.04 0.04 0.03 0.02 0.02 0.01 0.01 0.01 0.02 0.02 0.02 0.02 0.02 0.03 0.05 0.05 0.05 0.06 0.06 0.07 0.11 0.14 0.11 0.09 0.09 0.07 0.08 0.10 0.11 0.12 0.15 0.13 0.09 0.08
0.01 0.00 0.01 0.01 0.02 0.03 0.05 0.06 0.08 0.08 0.06 0.05 0.03 0.03 0.03 0.01 0.01 0.01 0.02 0.02 0.02 0.02 0.02 0.02 0.03 0.03 0.05 0.07 0.07 0.07 0.10 0.10 0.09 0.11 0.10 0.11 0.10 0.13 0.13 0.15 0.14 0.11 0.08
0.01 0.00 0.01 0.01 0.01 0.02 0.02 0.04 0.11 0.10 0.07 0.06 0.04 0.03 0.03 0.02 0.01 0.01 0.02 0.03 0.03 0.03 0.03 0.03 0.04 0.03 0.04 0.03 0.05 0.06 0.04 0.04 0.06 0.08 0.11 0.12 0.12 0.12 0.13 0.15 0.16 0.12 0.12
0.01 0.01 0.01 0.01 0.03 0.05 0.05 0.04 0.05 0.11 0.08 0.06 0.04 0.04 0.03 0.02 0.01 0.01 0.01 0.02 0.03 0.03 0.02 0.03 0.03 0.02 0.01 0.01 0.02 0.03 0.03 0.03 0.03 0.05 0.07 0.09 0.11 0.14 0.15 0.12 0.16 0.13 0.12
0.02 0.02 0.02 0.03 0.05 0.08 0.09 0.07 0.05 0.09 0.10 0.06 0.04 0.03 0.02 0.02 0.02 0.02 0.02 0.01 0.01 0.01 0.01 0.01 0.01 0.01 0.01 0.01 0.01 0.01 0.02 0.03 0.03 0.04 0.04 0.06 0.08 0.13 0.17 0.14 0.12 0.12 0.12
0.01 0.02 0.02 0.02 0.05 0.07 0.09 0.07 0.06 0.07 0.10 0.08 0.04 0.02 0.02 0.02 0.02 0.02 0.01 0.02 0.02 0.01 0.01 0.01 0.00 0.01 0.01 0.02 0.02 0.02 0.02 0.02 0.02 0.03 0.03 0.06 0.08 0.11 0.16 0.19 0.16 0.13 0.14
0.01 0.01 0.01 0.01 0.02 0.04 0.04 0.04 0.05 0.06 0.06 0.06 0.04 0.03 0.02 0.02 0.02 0.03 0.03 0.02 0.02 0.01 0.01 0.01 0.01 0.01 0.01 0.02 0.04 0.03 0.03 0.02 0.01 0.02 0.03 0.03 0.06 0.09 0.10 0.16 0.21 0.16 0.13
0.02 0.02 0.01 0.02 0.03 0.02 0.02 0.03 0.04 0.05 0.04 0.05 0.05 0.05 0.05 0.03 0.03 0.03 0.05 0.04 0.03 0.02 0.02 0.03 0.03 0.02 0.03 0.03 0.05 0.06 0.04 0.02 0.02 0.02 0.03 0.02 0.03 0.10 0.09 0.11 0.18 0.20 0.14
0.02 0.01 0.01 0.02 0.02 0.02 0.02 0.02 0.04 0.05 0.04 0.05 0.06 0.05 0.06 0.06 0.06 0.06 0.05 0.05 0.04 0.04 0.03 0.04 0.04 0.03 0.03 0.03 0.05 0.06 0.04 0.04 0.02 0.02 0.03 0.02 0.03 0.05 0.08 0.11 0.15 0.20 0.22
0.03 0.03 0.02 0.02 0.03 0.03 0.02 0.02 0.04 0.04 0.04 0.04 0.04 0.04 0.04 0.05 0.04 0.05 0.06 0.06 0.06 0.06 0.05 0.05 0.04 0.03 0.03 0.04 0.05 0.05 0.04 0.03 0.02 0.01 0.02 0.03 0.02 0.02 0.03 0.09 0.17 0.19 0.24
0.04 0.03 0.03 0.03 0.04 0.03 0.03 0.03 0.03 0.03 0.02 0.02 0.04 0.04 0.04 0.04 0.04 0.04 0.04 0.05 0.05 0.05 0.05 0.05 0.05 0.05 0.04 0.05 0.06 0.05 0.03 0.03 0.02 0.02 0.03 0.05 0.04 0.02 0.02 0.05 0.11 0.15 0.19
0.04 0.05 0.06 0.05 0.03 0.03 0.04 0.05 0.05 0.03 0.01 0.01 0.02 0.03 0.04 0.05 0.04 0.04 0.04 0.04 0.04 0.05 0.04 0.04 0.05 0.04 0.05 0.05 0.04 0.04 0.04 0.04 0.03 0.03 0.04 0.04 0.04 0.04 0.02 0.02 0.04 0.08 0.12
0.05 0.06 0.09 0.08 0.05 0.04 0.03 0.03 0.05 0.05 0.02 0.01 0.02 0.03 0.02 0.02 0.04 0.03 0.02 0.02 0.03 0.03 0.03 0.03 0.03 0.04 0.05 0.04 0.04 0.03 0.03 0.02 0.01 0.01 0.02 0.03 0.03 0.03 0.03 0.02 0.02 0.04 0.08
0.04 0.05 0.08 0.08 0.06 0.04 0.03 0.04 0.04 0.06 0.04 0.01 0.01 0.02 0.02 0.01 0.02 0.04 0.04 0.05 0.05 0.04 0.04 0.05 0.05 0.05 0.05 0.06 0.06 0.05 0.04 0.02 0.02 0.01 0.01 0.02 0.03 0.03 0.03 0.03 0.02 0.03 0.05
0.03 0.04 0.08 0.08 0.04 0.04 0.04 0.03 0.04 0.06 0.07 0.04 0.01 0.01 0.01 0.01 0.01 0.01 0.02 0.03 0.04 0.06 0.06 0.06 0.05 0.06 0.06 0.06 0.07 0.07 0.06 0.04 0.02 0.02 0.01 0.02 0.02 0.03 0.04 0.04 0.03 0.04 0.04
0.01 0.02 0.03 0.04 0.04 0.04 0.04 0.03 0.04 0.06 0.06 0.05 0.02 0.01 0.01 0.02 0.02 0.01 0.01 0.01 0.02 0.04 0.06 0.06 0.05 0.04 0.04 0.05 0.06 0.08 0.07 0.06 0.05 0.04 0.03 0.03 0.02 0.03 0.04 0.05 0.05 0.04 0.05
0.01 0.02 0.02 0.02 0.04 0.05 0.05 0.06 0.06 0.06 0.08 0.06 0.04 0.02 0.02 0.03 0.03 0.02 0.01 0.01 0.02 0.05 0.05 0.06 0.06 0.05 0.03 0.02 0.03 0.05 0.07 0.07 0.07 0.08 0.07 0.05 0.03 0.03 0.04 0.04 0.05 0.05 0.06
MSLP
1007.20 1006.90 1006.85 1007.05 1007.42 1007.90 1008.38 1008.79 1009.10 1009.30 1009.44 1009.57 1009.75 1010.04 1010.43 1010.91 1011.44 1011.97 1012.44 1012.84 1013.15 1013.40 1013.60 1013.80 1014.02 1014.28 1014.57 1014.89 1015.22 1015.52 1015.79 1016.01 1016.19 1016.32 1016.42 1016.50 1016.56 1016.61 1016.66 1016.72 1016.80 1016.90 1017.04
1006.71 1006.53 1006.59 1006.88 1007.32 1007.85 1008.37 1008.83 1009.18 1009.43 1009.62 1009.81 1010.06 1010.39 1010.81 1011.31 1011.83 1012.33 1012.77 1013.13 1013.41 1013.64 1013.84 1014.04 1014.27 1014.53 1014.82 1015.12 1015.41 1015.68 1015.92 1016.12 1016.29 1016.43 1016.56 1016.66 1016.74 1016.80 1016.86 1016.91 1016.96 1017.05 1017.18
1006.01 1005.98 1006.16 1006.55 1007.08 1007.68 1008.27 1008.78 1009.19 1009.52 1009.79 1010.06 1010.37 1010.75 1011.20 1011.69 1012.19 1012.64 1013.03 1013.35 1013.59 1013.80 1014.00 1014.21 1014.45 1014.72 1015.00 1015.28 1015.54 1015.78 1015.98 1016.17 1016.34 1016.50 1016.65 1016.78 1016.90 1016.99 1017.06 1017.11 1017.16 1017.24 1017.35
1005.24 1005.35 1005.67 1006.17 1006.79 1007.45 1008.10 1008.67 1009.15 1009.55 1009.90 1010.25 1010.64 1011.07 1011.54 1012.03 1012.49 1012.90 1013.24 1013.50 1013.72 1013.92 1014.12 1014.35 1014.61 1014.89 1015.17 1015.44 1015.67 1015.86 1016.04 1016.20 1016.37 1016.55 1016.73 1016.91 1017.06 1017.18 1017.27 1017.33 1017.38 1017.45 1017.56
1004.54 1004.80 1005.23 1005.83 1006.52 1007.23 1007.91 1008.52 1009.05 1009.51 1009.93 1010.35 1010.81 1011.29 1011.79 1012.28 1012.72 1013.09 1013.39 1013.63 1013.83 1014.03 1014.26 1014.52 1014.80 1015.10 1015.38 1015.63 1015.83 1015.99 1016.13 1016.28 1016.44 1016.63 1016.84 1017.05 1017.24 1017.39 1017.50 1017.56 1017.61 1017.68 1017.77
1004.08 1004.44 1004.97 1005.63 1006.34 1007.07 1007.75 1008.36 1008.90 1009.39 1009.86 1010.34 1010.85 1011.38 1011.92 1012.42 1012.86 1013.22 1013.50 1013.73 1013.94 1014.16 1014.42 1014.72 1015.04 1015.36 1015.65 1015.88 1016.06 1016.19 1016.30 1016.42 1016.57 1016.76 1016.99 1017.22 1017.44 1017.61 1017.72 1017.79 1017.83 1017.88 1017.97
1003.92 1004.36 1004.94 1005.61 1006.31 1007.00 1007.64 1008.20 1008.71 1009.20 1009.68 1010.21 1010.77 1011.35 1011.93 1012.46 1012.92 1013.29 1013.58 1013.83 1014.06 1014.32 1014.62 1014.96 1015.32 1015.67 1015.96 1016.19 1016.34 1016.44 1016.52 1016.62 1016.75 1016.94 1017.17 1017.41 1017.64 1017.81 1017.93 1017.99 1018.01 1018.05 1018.12
1004.06 1004.53 1005.11 1005.75 1006.40 1007.01 1007.56 1008.05 1008.50 1008.96 1009.44 1009.99 1010.59 1011.23 1011.85 1012.43 1012.92 1013.32 1013.64 1013.92 1014.19 1014.49 1014.83 1015.21 1015.61 1015.98 1016.28 1016.51 1016.64 1016.72 1016.77 1016.84 1016.96 1017.14 1017.36 1017.60 1017.82 1017.99 1018.09 1018.13 1018.14 1018.15 1018.20
1004.39 1004.87 1005.42 1006.00 1006.56 1007.07 1007.51 1007.91 1008.29 1008.70 1009.17 1009.74 1010.38 1011.06 1011.74 1012.36 1012.90 1013.33 1013.69 1014.00 1014.30 1014.64 1015.02 1015.43 1015.86 1016.24 1016.56 1016.78 1016.91 1016.97 1017.01 1017.06 1017.16 1017.33 1017.54 1017.77 1017.98 1018.13 1018.22 1018.24 1018.22 1018.20 1018.23
1004.78 1005.23 1005.72 1006.23 1006.70 1007.11 1007.45 1007.76 1008.08 1008.46 1008.93 1009.51 1010.18 1010.91 1011.63 1012.30 1012.88 1013.35 1013.73 1014.06 1014.39 1014.75 1015.15 1015.58 1016.02 1016.42 1016.74 1016.97 1017.09 1017.15 1017.18 1017.23 1017.32 1017.47 1017.68 1017.90 1018.10 1018.24 1018.31 1018.31 1018.28 1018.24 1018.25
1005.07 1005.48 1005.93 1006.36 1006.76 1007.08 1007.36 1007.61 1007.90 1008.26 1008.74 1009.35 1010.06 1010.82 1011.58 1012.29 1012.89 1013.38 1013.78 1014.12 1014.45 1014.81 1015.21 1015.65 1016.09 1016.49 1016.82 1017.05 1017.18 1017.24 1017.28 1017.32 1017.41 1017.56 1017.76 1017.98 1018.17 1018.32 1018.38 1018.39 1018.34 1018.30 1018.29
1005.18 1005.56 1005.96 1006.34 1006.68 1006.97 1007.22 1007.46 1007.75 1008.13 1008.64 1009.28 1010.03 1010.82 1011.61 1012.33 1012.94 1013.44 1013.84 1014.17 1014.49 1014.84 1015.23 1015.65 1016.08 1016.48 1016.81 1017.04 1017.19 1017.26 1017.30 1017.36 1017.45 1017.60 1017.80 1018.02 1018.23 1018.38 1018.46 1018.48 1018.45 1018.41 1018.40
1005.11 1005.45 1005.81 1006.16 1006.48 1006.77 1007.03 1007.30 1007.63 1008.06 1008.62 1009.31 1010.08 1010.90 1011.70 1012.42 1013.03 1013.52 1013.91 1014.23 1014.54 1014.87 1015.23 1015.63 1016.04 1016.43 1016.75 1016.99 1017.15 1017.23 1017.29 1017.35 1017.45 1017.61 1017.82 1018.04 1018.26 1018.44 1018.55 1018.60 1018.61 1018.59 1018.59
1004.91 1005.21 1005.54 1005.88 1006.20 1006.51 1006.81 1007.15 1007.55 1008.05 1008.66 1009.39 1010.19 1011.02 1011.82 1012.53 1013.14 1013.62 1014.00 1014.31 1014.60 1014.91 1015.26 1015.64 1016.03 1016.40 1016.71 1016.95 1017.11 1017.21 1017.27 1017.34 1017.45 1017.61 1017.82 1018.05 1018.29 1018.49 1018.65 1018.74 1018.79 1018.81 1018.83
1004.69 1004.95 1005.25 1005.57 1005.91 1006.25 1006.62 1007.02 1007.50 1008.07 1008.73 1009.49 1010.30 1011.13 1011.91 1012.61 1013.21 1013.69 1014.07 1014.39 1014.68 1014.99 1015.32 1015.68 1016.06 1016.41 1016.71 1016.95 1017.11 1017.21 1017.28 1017.36 1017.46 1017.61 1017.81 1018.05 1018.30 1018.53 1018.72 1018.86 1018.96 1019.02 1019.08
1004.59 1004.80 1005.05 1005.35 1005.68 1006.06 1006.48 1006.95 1007.49 1008.10 1008.80 1009.56 1010.37 1011.17 1011.93 1012.62 1013.21 1013.70 1014.11 1014.45 1014.77 1015.09 1015.43 1015.78 1016.14 1016.48 1016.77 1017.00 1017.16 1017.26 1017.33 1017.40 1017.49 1017.63 1017.82 1018.04 1018.28 1018.52 1018.74 1018.92 1019.06 1019.17 1019.26
1004.68 1004.83 1005.02 1005.28 1005.60 1005.99 1006.44 1006.94 1007.52 1008.15 1008.85 1009.60 1010.37 1011.13 1011.86 1012.53 1013.13 1013.64 1014.08 1014.47 1014.83 1015.18 1015.54 1015.90 1016.25 1016.58 1016.86 1017.08 1017.24 1017.34 1017.41 1017.47 1017.55 1017.66 1017.82 1018.02 1018.24 1018.47 1018.70 1018.90 1019.07 1019.22 1019.34
1004.99 1005.07 1005.20 1005.41 1005.70 1006.07 1006.52 1007.03 1007.61 1008.23 1008.90 1009.60 1010.31 1011.02 1011.71 1012.36 1012.95 1013.50 1013.98 1014.42 1014.84 1015.23 1015.61 1015.99 1016.34 1016.66 1016.93 1017.15 1017.31 1017.42 1017.50 1017.55 1017.62 1017.71 1017.83 1017.98 1018.17 1018.37 1018.58 1018.79 1018.97 1019.14 1019.29
1005.47 1005.49 1005.56 1005.71 1005.96 1006.31 1006.73 1007.23 1007.78 1008.36 1008.97 1009.59 1010.23 1010.87 1011.51 1012.13 1012.72 1013.29 1013.82 1014.32 1014.78 1015.21 1015.62 1016.00 1016.35 1016.66 1016.93 1017.16 1017.33 1017.46 1017.55 1017.62 1017.68 1017.75 1017.83 1017.95 1018.08 1018.24 1018.42 1018.60 1018.78 1018.96 1019.13
1006.02 1006.00 1006.03 1006.14 1006.35 1006.66 1007.06 1007.53 1008.03 1008.56 1009.09 1009.64 1010.19 1010.75 1011.32 1011.90 1012.49 1013.06 1013.62 1014.15 1014.65 1015.10 1015.52 1015.90 1016.25 1016.56 1016.84 1017.07 1017.27 1017.43 1017.56 1017.65 1017.72 1017.78 1017.84 1017.91 1017.99 1018.10 1018.23 1018.37 1018.54 1018.71 1018.89
1006.54 1006.50 1006.51 1006.60 1006.80 1007.10 1007.48 1007.91 1008.37 1008.84 1009.31 1009.76 1010.23 1010.70 1011.21 1011.74 1012.29 1012.86 1013.42 1013.96 1014.46 1014.92 1015.33 1015.70 1016.04 1016.34 1016.62 1016.88 1017.11 1017.32 1017.49 1017.63 1017.72 1017.79 1017.84 1017.87 1017.91 1017.96 1018.03 1018.13 1018.27 1018.43 1018.61
1006.92 1006.91 1006.94 1007.04 1007.25 1007.55 1007.92 1008.34 1008.77 1009.20 1009.60 1009.98 1010.36 1010.76 1011.20 1011.67 1012.18 1012.71 1013.24 1013.76 1014.24 1014.68 1015.06 1015.40 1015.71 1016.00 1016.29 1016.58 1016.85 1017.11 1017.34 1017.53 1017.68 1017.76 1017.81 1017.82 1017.81 1017.82 1017.84 1017.89 1017.99 1018.13 1018.31
1007.11 1007.16 1007.23 1007.38 1007.62 1007.95 1008.34 1008.76 1009.18 1009.58 1009.94 1010.27 1010.58 1010.91 1011.28 1011.68 1012.13 1012.61 1013.10 1013.56 1014.00 1014.38 1014.72 1015.02 1015.30 1015.58 1015.87 1016.18 1016.50 1016.81 1017.11 1017.35 1017.54 1017.66 1017.72 1017.72 1017.69 1017.65 1017.63 1017.64 1017.70 1017.82 1017.99
1007.12 1007.24 1007.38 1007.59 1007.88 1008.25 1008.67 1009.12 1009.54 1009.92 1010.26 1010.55 1010.82 1011.10 1011.40 1011.74 1012.12 1012.53 1012.95 1013.35 1013.72 1014.04 1014.32 1014.58 1014.83 1015.09 1015.38 1015.71 1016.06 1016.42 1016.76 1017.06 1017.30 1017.45 1017.52 1017.52 1017.48 1017.42 1017.36 1017.34 1017.36 1017.45 1017.61
1007.00 1007.19 1007.39 1007.67 1008.01 1008.42 1008.88 1009.34 1009.77 1010.16 1010.48 1010.75 1010.99 1011.22 1011.47 1011.75 1012.07 1012.41 1012.75 1013.08 1013.38 1013.64 1013.87 1014.08 1014.30 1014.54 1014.84 1015.17 1015.55 1015.94 1016.31 1016.65 1016.91 1017.09 1017.18 1017.20 1017.15 1017.08 1017.00 1016.95 1016.95 1017.01 1017.14
1006.82 1007.05 1007.31 1007.62 1008.00 1008.44 1008.92 1009.39 1009.83 1010.22 1010.54 1010.79 1011.01 1011.21 1011.42 1011.65 1011.90 1012.18 1012.46 1012.72 1012.96 1013.16 1013.35 1013.53 1013.72 1013.96 1014.24 1014.58 1014.96 1015.36 1015.75 1016.09 1016.38 1016.57 1016.68 1016.71 1016.67 1016.60 1016.52 1016.46 1016.44 1016.47 1016.56
Thickness
5789 5790 5788 5785 5783 5781 5779 5778 5778 5777 5776 5775 5774 5774 5773 5773 5773 5772 5771 5771 5770 5770 5770 5769 5769 5769 5768 5767 5766 5765 5765 5764 5763 5762 5761 5759 5758 5756 5755 5754 5753 5752 5750
5794 5791 5787 5785 5782 5780 5778 5777 5776 5775 5774 5773 5772 5772 5771 5770 5770 5770 5769 5769 5768 5768 5767 5767 5767 5766 5766 5765 5764 5763 5762 5762 5761 5760 5759 5757 5756 5755 5754 5753 5752 5750 5749
5794 5790 5787 5783 5781 5778 5777 5775 5774 5773 5772 5771 5770 5770 5769 5768 5768 5767 5767 5766 5766 5765 5765 5765 5764 5764 5763 5763 5762 5761 5760 5760 5759 5758 5757 5757 5755 5754 5753 5752 5751 5749 5748
5793 5789 5786 5782 5779 5777 5775 5773 5772 5771 5770 5769 5768 5767 5767 5766 5765 5765 5765 5764 5763 5763 5762 5762 5762 5762 5761 5761 5760 5759 5758 5757 5757 5756 5754 5754 5753 5752 5751 5750 5749 5749 5747
5791 5788 5784 5781 5777 5775 5773 5772 5771 5770 5768 5767 5766 5765 5764 5763 5763 5763 5762 5761 5761 5760 5760 5760 5760 5759 5759 5758 5757 5756 5755 5755 5754 5753 5752 5751 5751 5750 5749 5748 5746 5746 5744
5789 5786 5782 5779 5776 5774 5772 5770 5769 5768 5766 5765 5764 5763 5762 5761 5761 5760 5760 5759 5758 5758 5757 5757 5757 5756 5756 5755 5755 5754 5753 5752 5751 5750 5749 5749 5748 5748 5748 5746 5745 5743 5742
5786 5783 5780 5778 5775 5773 5770 5769 5767 5765 5764 5763 5761 5760 5760 5759 5758 5758 5757 5756 5756 5755 5755 5754 5754 5753 5753 5753 5752 5751 5751 5750 5749 5747 5747 5746 5746 5746 5745 5744 5743 5741 5740
5784 5781 5778 5776 5773 5771 5768 5767 5765 5763 5762 5760 5759 5758 5757 5756 5756 5755 5754 5753 5753 5752 5752 5751 5751 5750 5750 5750 5750 5749 5748 5747 5746 5745 5744 5743 5744 5744 5743 5742 5740 5739 5738
5782 5779 5776 5773 5771 5768 5766 5765 5763 5761 5760 5758 5757 5756 5755 5754 5753 5752 5751 5750 5750 5749 5749 5749 5749 5748 5748 5748 5747 5747 5746 5745 5743 5743 5742 5741 5741 5742 5741 5739 5737 5736 5735
5778 5775 5772 5770 5768 5766 5764 5763 5761 5759 5758 5756 5754 5753 5751 5750 5749 5748 5748 5747 5747 5747 5745 5746 5746 5745 5745 5745 5745 5744 5743 5742 5741 5740 5740 5739 5739 5739 5738 5737 5735 5734 5733
5773 5772 5770 5768 5766 5764 5762 5760 5758 5756 5755 5753 5752 5750 5748 5747 5746 5745 5744 5744 5744 5744 5743 5743 5742 5742 5742 5742 5742 5742 5741 5739 5739 5738 5738 5738 5737 5737 5735 5734 5733 5731 5731
5769 5768 5767 5765 5763 5761 5760 5757 5755 5753 5751 5750 5748 5747 5745 5744 5743 5742 5741 5741 5741 5741 5740 5740 5740 5739 5739 5739 5739 5738 5738 5737 5736 5736 5736 5735 5735 5734 5733 5732 5731 5729 5729
5769 5767 5765 5763 5761 5758 5756 5754 5752 5750 5749 5747 5745 5744 5742 5741 5740 5739 5738 5737 5737 5737 5737 5737 5736 5736 5736 5736 5735 5735 5735 5734 5734 5733 5733 5733 5733 5732 5731 5730 5729 5727 5726
5767 5765 5763 5761 5758 5756 5753 5752 5749 5748 5746 5744 5742 5741 5740 5738 5737 5736 5734 5734 5734 5733 5733 5733 5733 5733 5733 5733 5732 5732 5732 5731 5731 5731 5731 5731 5730 5730 5729 5728 5727 5726 5725
5765 5764 5762 5759 5756 5754 5751 5749 5747 5745 5743 5742 5740 5739 5738 5736 5734 5733 5732 5731 5731 5730 5730 5729 5729 5729 5729 5729 5729 5729 5729 5729 5728 5728 5728 5728 5727 5727 5727 5726 5726 5725 5723
5765 5763 5760 5757 5755 5752 5749 5746 5744 5742 5741 5739 5738 5737 5735 5734 5732 5731 5730 5729 5728 5727 5727 5726 5726 5726 5726 5726 5726 5726 5726 5726 5726 5725 5725 5725 5725 5725 5724 5724 5724 5723 5722
5765 5762 5759 5756 5753 5750 5747 5744 5742 5740 5739 5737 5736 5734 5733 5731 5730 5729 5727 5726 5726 5725 5724 5723 5723 5722 5722 5722 5723 5723 5723 5723 5723 5722 5722 5722 5722 5722 5722 5722 5721 5721 5720
5763 5760 5757 5755 5751 5747 5744 5742 5739 5738 5736 5734 5733 5732 5730 5729 5728 5727 5724 5724 5723 5722 5721 5720 5719 5719 5718 5718 5718 5719 5719 5720 5720 5720 5720 5720 5719 5719 5720 5719 5719 5719 5718
5761 5758 5755 5752 5748 5745 5742 5739 5737 5735 5733 5731 5730 5729 5728 5726 5725 5724 5723 5722 5721 5720 5718 5718 5716 5715 5714 5714 5714 5714 5715 5715 5716 5717 5717 5717 5717 5716 5717 5716 5716 5716 5716
5758 5755 5752 5749 5746 5743 5739 5736 5733 5731 5730 5728 5727 5726 5725 5724 5723 5722 5721 5719 5718 5716 5715 5714 5713 5712 5710 5710 5710 5710 5710 5711 5712 5713 5713 5713 5713 5713 5713 5713 5713 5713 5713
5755 5752 5749 5746 5743 5740 5735 5731 5728 5726 5725 5724 5724 5723 5722 5721 5720 5719 5717 5716 5714 5713 5711 5710 5709 5708 5706 5705 5703 5702 5704 5706 5707 5708 5708 5709 5709 5710 5709 5709 5709 5709 5709
5752 5749 5747 5744 5741 5738 5734 5730 5727 5724 5722 5721 5720 5719 5718 5717 5716 5715 5714 5712 5711 5709 5708 5707 5706 5704 5702 5701 5698 5696 5694 5696 5700 5703 5703 5704 5705 5705 5705 5705 5705 5705 5705
5748 5747 5745 5741 5738 5735 5732 5728 5724 5721 5718 5716 5715 5714 5714 5713 5712 5711 5710 5709 5708 5706 5705 5704 5703 5701 5698 5697 5697 5694 5690 5688 5691 5695 5697 5699 5700 5700 5701 5701 5701 5701 5701
5747 5746 5743 5739 5735 5731 5729 5725 5721 5716 5713 5711 5710 5709 5709 5709 5708 5708 5707 5706 5705 5703 5702 5701 5700 5698 5696 5693 5692 5692 5691 5690 5686 5685 5689 5692 5693 5694 5695 5696 5696 5696 5696
5744 5741 5738 5735 5731 5728 5725 5722 5718 5714 5711 5708 5707 5705 5704 5704 5704 5703 5702 5702 5700 5699 5698 5697 5695 5694 5693 5691 5689 5688 5686 5685 5685 5682 5681 5683 5686 5688 5690 5690 5691 5691 5691
5739 5736 5733 5730 5727 5725 5721 5718 5714 5710 5707 5705 5703 5701 5700 5699 5699 5698 5698 5697 5696 5694 5693 5692 5691 5689 5688 5687 5686 5685 5683 5682 5681 5679 5677 5677 5678 5680 5683 5684 5685 5685 5685